User: anonymous   Login
Location: Bangkok
(13.7500°N, 100.5170°E)
Time: 02:36:19
(UTC+07:00)
Language:

SPOT 1/Viking Rocket - Orbit

View from above orbital plane
View from above orbital plane
View from above satellite
View from above satellite

Ground track
Ground track

The orbit data is extracted from the following two-line orbital elements,

1 16615U 86019C   17235.17755844  .00000013  00000-0  21502-4 0  9990
2 16615  98.6068 301.8583 0011385 202.9459 181.6159 14.31667172649081
Epoch (UTC): 23 August 2017 04:15:41
Eccentricity: 0.0011385
inclination: 98.6068°
perigee height: 778 km
apogee height: 794 km
right ascension of ascending node: 301.8583°
argument of perigee: 202.9459°
revolutions per day: 14.31667172
mean anomaly at epoch: 181.6159°
orbit number at epoch: 64908

The dashed part of the orbit path shows where the satellite is in the earth's shadow,  

DLR